星链-5015 (STARLINK-5015 )

导读 | 星芒AI

STARLINK-5015 是 SpaceX 星链计划中的一颗低轨通信卫星,属于第 50 批发射的星链卫星群。该卫星旨在为全球用户提供高速互联网服务,尤其关注网络覆盖不足的地区。它运行在约 550 公里的轨道高度,采用先进的推进系统和激光通信技术,以提升连接效率和稳定性。作为星链星座的一部分,STARLINK-5015 有助于构建更广泛的全球宽带网络,支持远程办公、教育和应急通信等应用。

基本信息
目录编号:
53931
目录名称:
STARLINK-5015
国际标识:
2022-119AX
轨道中心:
EARTH
卫星名称:
星链-5015
卫星全名:
星链-5015 (STARLINK-5015 )
卫星状态:
已陨落 最后检测时间 2025-11-27
发射日期:
2022-09-24 UTC
国别 :
美国 (US)
星等 :
--
轨道信息
数据来源 国际轨道数据
星历时间: 2025-11-27T22:33:43+0800
轨道信息已过期23天
半长轴: 6535.371km
偏心率: 0.0000879
轨道倾角: 53.194°
近地点辐角 241.348°
升交点赤经 8.076°
平近点角 118.748°
近地点: 156.661km
远地点: 157.811km
周期: 87.632分钟
每日圈数: 16.432264
详细信息
固有亮度:
5
最大亮度:
2.5
卫星平台:
Starlink v1.5
覆盖范围:
全球
运营商:
太空探索技术公司
运营商所在国:
美国
制造商(研发单位):
太空探索技术公司
制造商所在国:
美国
使用方式:
暂无
卫星简介
星链(Starlink)计划是由太空探索技术公司(SpaceX)提出的一个巨型低轨卫星互联网星座项目,计划在2019年至2024年间在太空搭建由约1.2万颗卫星组成的“星链”网络,其中1584颗将部署在地球上空550千米处的近地轨道,并从2020年开始工作。该卫星仍在工作。